Location: Czekanka
(50.4925°N, 19.2643°E)
Time: 07:16:30
(UTC+00:00)

SL-16 R/B - Pass Details

Date: 25 September 2024
Orbit: 842 x 846 km, 71.0° (Epoch: 05 October)

Event Time Altitude Azimuth Distance (km) Brightness Sun altitude
Rises 02:40:28 0° 329° (NNW) 3,412 5.3 -18.5°
Reaches altitude 10° 02:42:56 10° 327° (NNW) 2,472 4.5 -18.1°
Maximum altitude 02:48:34 69° 245° (WSW) 901 2.1 -17.3°
Drops below altitude 10° 02:54:10 10° 163° (SSE) 2,455 4.6 -16.5°
Sets 02:56:36 0° 161° (SSE) 3,386 5.3 -16.1°
